Regional Weather Roundup
Issued by NWS

Current Version | Previous Version | Text Only | Print | Product List | Glossary On
Versions: 1 2 3 4 5 6 7 8 9 10 11 12 13 14 15 16 17 18 19 20 21 22 23 24 25 26 27 28 29 30 31 32 33 34 35 36 37 38 39 40 41 42 43 44 45 46 47 48 49 50
000
ASUS43 KTOP 181608
RWRKS

WEATHER ROUNDUP FOR KANSAS
NATIONAL WEATHER SERVICE GOODLAND KS
1000 AM CST THU JAN 18 2018

NOTE:  "FAIR" INDICATES FEW OR NO CLOUDS BELOW 12,000 FEET WITH NO
SIGNIFICANT WEATHER AND/OR OBSTRUCTIONS TO VISIBILITY.

KSZ001>006-013>018-027>032-041>047-181700-
NORTHWEST KANSAS

CITY           SKY/WX    TMP DP  RH WIND       PRES   REMARKS
GOODLAND       PTSUNNY   43  13  29 W14       30.08R
HAYS           CLOUDY    27  17  66 SW9       30.14S
HILL CITY      CLOUDY    28  18  66 W7        30.09F
RUSSELL        CLOUDY    26  16  65 SW13      30.13R WCI  15
$$

KSZ061>065-074>080-084>089-181700-
SOUTHWEST KANSAS

CITY           SKY/WX    TMP DP  RH WIND       PRES   REMARKS
DODGE CITY     CLOUDY    31  13  47 SW7       30.15R
ELKHART        SUNNY     41  16  37 W7        30.16R
GARDEN CITY    CLOUDY    30  12  47 W9        30.14R
GREAT BEND     CLOUDY    29  14  53 SW14      30.15F WCI  18
LIBERAL        CLOUDY    31  15  52 W5        30.18R
PRATT          SUNNY     32   8  37 SW16      30.19R WCI  21
$$

KSZ066>073-081>083-090>101-181700-
SOUTHEAST KANSAS

CITY           SKY/WX    TMP DP  RH WIND       PRES   REMARKS
CHANUTE          N/A    N/A N/A N/A MISG      30.32
COFFEYVILLE    CLOUDY    26  14  60 S14G21    30.37F WCI  14
HUTCHINSON     CLOUDY    30  10  43 S12       30.20S WCI  20
MEDICINE LODGE   N/A     28   8  43 S8        30.22F
NEWTON         SUNNY     29  12  49 S15       30.21S WCI  18
PARSONS        CLOUDY    25  13  60 S12       30.36S WCI  14
WICHITA INTL   MOSUNNY   30   8  39 S15       30.24S WCI  19
WICHITA JABRA  SUNNY     28   9  44 S16       30.23S WCI  16
WICHITA MCCONL SUNNY     29   6  38 SW15      30.24F WCI  18
WINFIELD       CLOUDY    31   8  38 S15       30.30F WCI  20
$$

KSZ007>012-019>026-033>040-048>060-102>105-181700-
NORTHEAST KANSAS

CITY           SKY/WX    TMP DP  RH WIND       PRES   REMARKS
CONCORDIA      CLOUDY    26  12  55 SW10      30.12F WCI  16
EMPORIA        CLOUDY    29  15  56 S12       30.23S WCI  19
LAWRENCE       CLOUDY    26  11  52 S9        30.26S
MANHATTAN      CLOUDY    29  12  49 SW14      30.19F WCI  18
MARYSVILLE     CLOUDY    25  12  58 SW16      30.13F WCI  12
OLATHE IND     CLOUDY    26  13  57 S14       30.25S WCI  14
OLATHE EXE     CLOUDY    24  11  57 S12       30.24F WCI  13
SALINA         CLOUDY    27  13  55 S14       30.18F WCI  16
TOPEKA BILLARD CLOUDY    26  12  55 S12       30.24S WCI  16
TOPEKA FORBES  CLOUDY    26  13  57 S13       30.22R WCI  15
$$



USA.gov is the U.S. government's official web portal to all federal, state and local government web resources and services.